H1 CPF 2 NER 2024 7 12 9 194 01 glonass131 H2 1301901 9131 39155 2024 7 12 0 0 0 2024 7 15 23 45 0 900 1 1 0 0 0 1 H9 10 0 60503 0.00000 0 -8102869.458 11906785.014 -21027030.965 10 0 60503 900.00000 0 -10505926.900 12633462.549 -19491953.611 10 0 60503 1800.00000 0 -12646983.295 13467041.117 -17577650.191 10 0 60503 2700.00000 0 -14482950.360 14357803.292 -15321631.670 10 0 60503 3600.00000 0 -15982342.852 15250293.554 -12767992.454 10 0 60503 4500.00000 0 -17126332.563 16085751.451 -9966533.675 10 0 60503 5400.00000 0 -17909277.672 16804694.450 -6971780.885 10 0 60503 6300.00000 0 -18338708.809 17349541.186 -3841916.258 10 0 60503 7200.00000 0 -18434775.932 17667164.781 -637646.713 10 0 60503 8100.00000 0 -18229182.397 17711269.485 2578969.830 10 0 60503 9000.00000 0 -17763653.615 17444491.890 5745717.552 10 0 60503 9900.00000 0 -17088006.465 16840139.837 8801412.685 10 0 60503 10800.00000 0 -16257901.586 15883497.590 11687068.395 10 0 60503 11700.00000 0 -15332373.054 14572643.870 14347013.590 10 0 60503 12600.00000 0 -14371238.473 12918749.450 16729945.785 10 0 60503 13500.00000 0 -13432496.765 10945842.202 18789899.704 10 0 60503 14400.00000 0 -12569820.949 8690048.977 20487114.999 10 0 60503 15300.00000 0 -11830248.965 6198344.704 21788788.230 10 0 60503 16200.00000 0 -11252167.345 3526858.747 22669696.286 10 0 60503 17100.00000 0 -10863670.586 738806.241 23112680.413 10 0 60503 18000.00000 0 -10681363.975 -2097872.793 23108982.125 10 0 60503 18900.00000 0 -10709659.796 -4913071.944 22658424.491 10 0 60503 19800.00000 0 -10940597.071 -7637171.641 21769434.531 10 0 60503 20700.00000 0 -11354193.848 -10203679.838 20458904.883 10 0 60503 21600.00000 0 -11919319.358 -12551752.830 18751895.424 10 0 60503 22500.00000 0 -12595052.014 -14628492.854 16681178.179 10 0 60503 23400.00000 0 -13332468.785 -16390927.377 14286631.732 10 0 60503 24300.00000 0 -14076793.091 -17807587.263 11614494.261 10 0 60503 25200.00000 0 -14769812.636 -18859616.774 8716487.295 10 0 60503 26100.00000 0 -15352466.226 -19541367.316 5648825.395 10 0 60503 27000.00000 0 -15767490.455 -19860448.113 2471129.737 10 0 60503 27900.00000 0 -15962013.465 -19837229.809 -754733.722 10 0 60503 28800.00000 0 -15889984.141 -19503820.369 -3965868.502 10 0 60503 29700.00000 0 -15514331.291 -18902555.481 -7099589.508 10 0 60503 30600.00000 0 -14808758.291 -18084067.136 -10094666.742 10 0 60503 31500.00000 0 -13759093.916 -17105012.525 -12892544.257 10 0 60503 32400.00000 0 -12364138.954 -16025560.611 -15438508.158 10 0 60503 33300.00000 0 -10635970.214 -14906744.784 -17682778.511 10 0 60503 34200.00000 0 -8599686.875 -13807795.710 -19581501.524 10 0 60503 35100.00000 0 -6292608.679 -12783569.640 -21097620.898 10 0 60503 36000.00000 0 -3762959.276 -11882182.990 -22201610.127 10 0 60503 36900.00000 0 -1068090.249 -11142954.656 -22872050.690 10 0 60503 37800.00000 0 1727678.837 -10594743.880 -23096044.852 10 0 60503 38700.00000 0 4555512.762 -10254753.849 -22869455.579 10 0 60503 39600.00000 0 7344701.511 -10127850.776 -22196969.853 10 0 60503 40500.00000 0 10025378.307 -10206425.615 -21091985.617 10 0 60503 41400.00000 0 12531200.763 -10470802.119 -19576326.184 10 0 60503 42300.00000 0 14801883.220 -10890171.526 -17679789.519 10 0 60503 43200.00000 0 16785475.407 -11424011.756 -15439543.018 10 0 60503 44100.00000 0 18440293.800 -12023928.761 -12899377.296 10 0 60503 45000.00000 0 19736427.297 -12635840.090 -10108835.173 10 0 60503 45900.00000 0 20656757.081 -13202406.890 -7122234.124 10 0 60503 46800.00000 0 21197451.288 -13665610.692 -3997602.212 10 0 60503 47700.00000 0 21367917.075 -13969365.923 -795548.908 10 0 60503 48600.00000 0 21190215.359 -14062058.315 2421907.078 10 0 60503 49500.00000 0 20697965.570 -13898903.115 5592530.412 10 0 60503 50400.00000 0 19934788.555 -13444025.082 8655059.714 10 0 60503 51300.00000 0 18952354.377 -12672174.251 11550374.134 10 0 60503 52200.00000 0 17808117.381 -11570006.786 14222614.881 10 0 60503 53100.00000 0 16562833.210 -10136878.341 16620241.775 10 0 60503 54000.00000 0 15277960.658 -8385117.241 18697006.409 10 0 60503 54900.00000 0 14013055.483 -6339765.973 20412825.228 10 0 60503 55800.00000 0 12823263.158 -4037800.858 21734537.555 10 0 60503 56700.00000 0 11757013.264 -1526860.668 22636535.635 10 0 60503 57600.00000 0 10854009.937 1136465.378 23101255.790 10 0 60503 58500.00000 0 10143600.827 3888722.128 23119521.809 10 0 60503 59400.00000 0 9643591.901 6661962.321 22690733.980 10 0 60503 60300.00000 0 9359557.514 9386314.647 21822899.386 10 0 60503 61200.00000 0 9284675.378 11992642.579 20532501.480 10 0 60503 62100.00000 0 9400094.743 14415186.187 18844209.499 10 0 60503 63000.00000 0 9675824.385 16594079.054 16790430.938 10 0 60503 63900.00000 0 10072105.378 18477636.448 14410713.105 10 0 60503 64800.00000 0 10541213.220 20024319.437 11751002.781 10 0 60503 65700.00000 0 11029615.360 21204292.063 8862775.914 10 0 60503 66600.00000 0 11480394.434 22000504.864 5802052.415 10 0 60503 67500.00000 0 11835835.357 22409257.321 2628313.912 10 0 60503 68400.00000 0 12040066.391 22440213.488 -596654.966 10 0 60503 69300.00000 0 12041640.945 22115868.168 -3809978.891 10 0 60503 70200.00000 0 11795948.500 21470484.647 -6948933.020 10 0 60503 71100.00000 0 11267349.565 20548548.038 -9952187.230 10 0 60503 72000.00000 0 10430940.997 19402799.509 -12761026.885 10 0 60503 72900.00000 0 9273873.625 18091935.248 -15320523.949 10 0 60503 73800.00000 0 7796163.371 16678068.844 -17580633.145 10 0 60503 74700.00000 0 6010959.072 15224066.275 -19497189.512 10 0 60503 75600.00000 0 3944254.021 13790868.377 -21032786.129 10 0 60503 76500.00000 0 1634052.261 12434915.839 -22157513.533 10 0 60503 77400.00000 0 -870975.380 11205787.164 -22849545.721 10 0 60503 78300.00000 0 -3513288.662 10144150.293 -23095561.222 10 0 60503 79200.00000 0 -6228652.449 9280114.496 -22890991.530 10 0 60503 80100.00000 0 -8948596.087 8632051.437 -22240093.056 10 0 60503 81000.00000 0 -11603053.650 8205933.674 -21155842.608 10 0 60503 81900.00000 0 -14123073.845 7995216.294 -19659660.102 10 0 60503 82800.00000 0 -16443485.940 7981264.011 -17780965.718 10 0 60503 83700.00000 0 -18505410.658 8134302.757 -15556581.982 10 0 60503 84600.00000 0 -20258512.126 8414852.659 -13029994.167 10 0 60503 85500.00000 0 -21662898.420 8775579.201 -10250485.033 10 0 60504 0.00000 0 -22690593.535 9163482.123 -7272162.358 10 0 60504 900.00000 0 -23326522.474 9522328.222 -4152897.593 10 0 60504 1800.00000 0 -23568969.992 9795223.860 -953200.971 10 0 60504 2700.00000 0 -23429498.707 9927219.115 2264950.123 10 0 60504 3600.00000 0 -22932331.403 9867833.634 5439303.041 10 0 60504 4500.00000 0 -22113226.413 9573398.893 8508521.080 10 0 60504 5400.00000 0 -21017894.773 9009119.527 11413351.761 10 0 60504 6300.00000 0 -19700026.374 8150768.431 14097751.049 10 0 60504 7200.00000 0 -18219007.767 6985945.702 16509943.545 10 0 60504 8100.00000 0 -16637426.332 5514849.485 18603400.151 10 0 60504 9000.00000 0 -15018463.656 3750526.697 20337716.427 10 0 60504 9900.00000 0 -13423285.013 1718592.605 21679376.583 10 0 60504 10800.00000 0 -11908531.673 -543570.356 22602390.100 10 0 60504 11700.00000 0 -10524018.427 -2988103.367 23088789.924 10 0 60504 12600.00000 0 -9310730.394 -5558400.689 23128983.319 10 0 60504 13500.00000 0 -8299201.260 -8191209.227 22721948.615 10 0 60504 14400.00000 0 -7508339.825 -10819014.487 21875273.368 10 0 60504 15300.00000 0 -6944753.942 -13372617.140 20605031.842 10 0 60504 16200.00000 0 -6602600.834 -15783796.118 18935502.221 10 0 60504 17100.00000 0 -6463971.525 -17987949.785 16898726.625 10 0 60504 18000.00000 0 -6499795.103 -19926606.578 14533919.852 10 0 60504 18900.00000 0 -6671226.897 -21549700.911 11886735.681 10 0 60504 19800.00000 0 -6931464.049 -22817518.738 9008402.542 10 0 60504 20700.00000 0 -7227913.419 -23702229.985 5954743.482 10 0 60504 21600.00000 0 -7504621.097 -24188941.634 2785098.137 10 0 60504 22500.00000 0 -7704860.704 -24276224.907 -438832.843 10 0 60504 23400.00000 0 -7773769.933 -23976092.019 -3654198.092 10 0 60504 24300.00000 0 -7660921.718 -23313421.532 -6798235.975 10 0 60504 25200.00000 0 -7322718.479 -22324855.112 -9809519.330 10 0 60504 26100.00000 0 -6724504.834 -21057211.546 -12629178.023 10 0 60504 27000.00000 0 -5842305.986 -19565485.192 -15202073.059 10 0 60504 27900.00000 0 -4664114.963 -17910514.178 -17477896.933 10 0 60504 28800.00000 0 -3190671.488 -16156418.469 -19412176.458 10 0 60504 29700.00000 0 -1435697.409 -14367917.812 -20967156.704 10 0 60504 30600.00000 0 574422.674 -12607644.680 -22112547.484 10 0 60504 31500.00000 0 2801502.719 -10933567.303 -22826117.080 10 0 60504 32400.00000 0 5196922.220 -9396632.508 -23094121.522 10 0 60504 33300.00000 0 7703440.792 -8038728.215 -22911561.546 10 0 60504 34200.00000 0 10257383.166 -6891051.025 -22282263.192 10 0 60504 35100.00000 0 12791101.917 -5972946.380 -21218781.856 10 0 60504 36000.00000 0 15235613.758 -5291268.097 -19742133.312 10 0 60504 36900.00000 0 17523298.384 -4840281.542 -17881358.769 10 0 60504 37800.00000 0 19590546.768 -4602111.400 -15672934.250 10 0 60504 38700.00000 0 21380248.613 -4547711.865 -13160037.594 10 0 60504 39600.00000 0 22844016.012 -4638315.134 -10391688.957 10 0 60504 40500.00000 0 23944052.039 -4827294.251 -7421782.922 10 0 60504 41400.00000 0 24654588.425 -5062359.380 -4308032.074 10 0 60504 42300.00000 0 24962834.764 -5287993.191 -1110843.309 10 0 60504 43200.00000 0 24869402.375 -5448021.758 2107851.031 10 0 60504 44100.00000 0 24388187.827 -5488212.379 5285784.712 10 0 60504 45000.00000 0 23545723.401 -5358789.355 8361549.302 10 0 60504 45900.00000 0 22380023.597 -5016762.776 11275764.031 10 0 60504 46800.00000 0 20938977.062 -4427973.635 13972202.621 10 0 60504 47700.00000 0 19278351.584 -3568770.658 16398857.050 10 0 60504 48600.00000 0 17459494.974 -2427249.560 18508919.698 10 0 60504 49500.00000 0 15546826.574 -1004003.402 20261666.955 10 0 60504 50400.00000 0 13605222.171 687647.410 21623229.201 10 0 60504 51300.00000 0 11697399.012 2621955.984 22567233.980 10 0 60504 52200.00000 0 9881407.423 4761569.838 23075311.263 10 0 60504 53100.00000 0 8208331.201 7058840.085 23137451.734 10 0 60504 54000.00000 0 6720290.593 9457567.518 22752211.260 10 0 60504 54900.00000 0 5448829.721 11895116.398 21926756.930 10 0 60504 55800.00000 0 4413755.058 14304811.479 20676752.457 10 0 60504 56700.00000 0 3622473.576 16618521.819 19026083.212 10 0 60504 57600.00000 0 3069859.089 18769326.451 17006423.857 10 0 60504 58500.00000 0 2738653.804 20694152.679 14656654.307 10 0 60504 59400.00000 0 2600390.001 22336277.798 12022132.737 10 0 60504 60300.00000 0 2616794.889 23647589.575 9153837.296 10 0 60504 61200.00000 0 2741621.058 24590509.706 6107391.276 10 0 60504 62100.00000 0 2922826.302 25139497.786 2941989.368 10 0 60504 63000.00000 0 3105011.020 25282070.154 -280754.699 10 0 60504 63900.00000 0 3232009.447 25019288.240 -3498016.407 10 0 60504 64800.00000 0 3249523.510 24365693.376 -6647000.073 10 0 60504 65700.00000 0 3107685.422 23348688.764 -9666184.004 10 0 60504 66600.00000 0 2763437.533 22007393.500 -12496544.796 10 0 60504 67500.00000 0 2182625.397 20391016.343 -15082734.428 10 0 60504 68400.00000 0 1341712.142 18556818.098 -17374184.769 10 0 60504 69300.00000 0 229038.609 16567749.784 -19326115.709 10 0 60504 70200.00000 0 -1154426.443 14489867.600 -20900425.348 10 0 60504 71100.00000 0 -2794879.549 12389635.498 -22066443.567 10 0 60504 72000.00000 0 -4666028.828 10331230.689 -22801533.477 10 0 60504 72900.00000 0 -6729979.028 8373966.840 -23091528.906 10 0 60504 73800.00000 0 -8938617.671 6569944.127 -22930999.850 10 0 60504 74700.00000 0 -11235443.125 4962024.945 -22323341.677 10 0 60504 75600.00000 0 -13557756.709 3582219.445 -21280687.713 10 0 60504 76500.00000 0 -15839125.724 2450546.970 -19823648.570 10 0 60504 77400.00000 0 -18012013.117 1574418.741 -17980885.104 10 0 60504 78300.00000 0 -20010463.062 948564.595 -15788525.153 10 0 60504 79200.00000 0 -21772729.898 555503.405 -13289437.198 10 0 60504 80100.00000 0 -23243740.860 366533.823 -10532376.709 10 0 60504 81000.00000 0 -24377290.697 343200.282 -7571023.161 10 0 60504 81900.00000 0 -25137878.005 439169.533 -4462927.510 10 0 60504 82800.00000 0 -25502108.595 602436.343 -1268391.321 10 0 60504 83700.00000 0 -25459609.595 777763.817 1950700.385 10 0 60504 84600.00000 0 -25013418.571 909254.714 5132070.081 10 0 60504 85500.00000 0 -24179833.699 942945.411 8214239.938 10 0 60505 0.00000 0 -22987733.353 829313.944 11137702.991 10 0 60505 900.00000 0 -21477394.181 525597.594 13846053.589 10 0 60505 1800.00000 0 -19698859.301 -2175.890 16287053.102 10 0 60505 2700.00000 0 -17709922.421 -777527.649 18413617.540 10 0 60505 3600.00000 0 -15573812.384 -1812306.205 20184706.096 10 0 60505 4500.00000 0 -13356672.352 -3105955.876 21566097.013 10 0 60505 5400.00000 0 -11124936.385 -4645306.040 22531037.282 10 0 60505 6300.00000 0 -8942709.980 -6404891.219 23060754.921 10 0 60505 7200.00000 0 -6869260.968 -8347790.630 23144824.696 10 0 60505 8100.00000 0 -4956722.739 -10426954.891 22781380.297 10 0 60505 9000.00000 0 -3248103.468 -12586967.866 21977168.282 10 0 60505 9900.00000 0 -1775683.046 -14766173.680 20747441.394 10 0 60505 10800.00000 0 -559864.026 -16899083.669 19115691.453 10 0 60505 11700.00000 0 391475.108 -18918965.912 17113224.587 10 0 60505 12600.00000 0 1083096.356 -20760511.518 14778584.442 10 0 60505 13500.00000 0 1531981.974 -22362467.670 12156831.911 10 0 60505 14400.00000 0 1766393.582 -23670127.597 9298692.909 10 0 60505 15300.00000 0 1824448.573 -24637572.413 6259588.802 10 0 60505 16200.00000 0 1752272.608 -25229569.125 3098566.981 10 0 60505 17100.00000 0 1601805.567 -25423042.748 -122848.246 10 0 60505 18000.00000 0 1428353.892 -25208057.793 -3341861.824 10 0 60505 18900.00000 0 1287993.970 -24588265.018 -6495646.693 10 0 60505 19800.00000 0 1234938.430 -23580792.125 -9522589.389 10 0 60505 20700.00000 0 1318979.503 -22215581.062 -12363516.019 10 0 60505 21600.00000 0 1583120.785 -20534198.586 -14962872.279 10 0 60505 22500.00000 0 2061500.911 -18588170.065 -17269832.119 10 0 60505 23400.00000 0 2777700.077 -16436906.942 -19239311.052 10 0 60505 24300.00000 0 3743503.732 -14145316.478 -20832862.483 10 0 60505 25200.00000 0 4958177.654 -11781195.981 -22019438.298 10 0 60505 26100.00000 0 6408286.299 -9412522.686 -22775997.978 10 0 60505 27000.00000 0 8068062.559 -7104754.689 -23087954.252 10 0 60505 27900.00000 0 9900313.148 -4918257.341 -22949447.027 10 0 60505 28800.00000 0 11857820.691 -2905963.505 -22363441.212 10 0 60505 29700.00000 0 13885182.389 -1111365.332 -21341647.859 10 0 60505 30600.00000 0 15921006.682 433079.550 -19904271.812 10 0 60505 31500.00000 0 17900374.389 1707062.744 -18079592.573 10 0 60505 32400.00000 0 19757460.046 2703016.861 -15903388.398 10 0 60505 33300.00000 0 21428202.947 3426162.922 -13418216.596 10 0 60505 34200.00000 0 22852915.851 3894015.085 -10672565.722 10 0 60505 35100.00000 0 23978722.600 4135367.195 -7719897.516 10 0 60505 36000.00000 0 24761723.662 4188807.179 -4617598.327 10 0 60505 36900.00000 0 25168800.572 4100824.700 -1425861.135 10 0 60505 37800.00000 0 25178985.700 3923593.928 1793479.775 10 0 60505 38700.00000 0 24784342.255 3712526.174 4978139.053 10 0 60505 39600.00000 0 23990319.861 3523696.024 8066572.866 10 0 60505 40500.00000 0 22815572.755 3411249.078 10999151.784 10 0 60505 41400.00000 0 21291249.601 3424899.569 13719292.692 10 0 60505 42300.00000 0 19459785.368 3607621.782 16174529.551 10 0 60505 43200.00000 0 17373245.642 3993630.876 18317504.320 10 0 60505 44100.00000 0 15091291.541 4606736.525 20106860.942 10 0 60505 45000.00000 0 12678848.412 5459137.532 21508027.104 10 0 60505 45900.00000 0 10203573.064 6550707.590 22493870.432 10 0 60505 46800.00000 0 7733222.198 7868802.623 23045217.765 10 0 60505 47700.00000 0 5333028.591 9388599.094 23151228.278 10 0 60505 48600.00000 0 3063191.357 11073951.348 22809613.348 10 0 60505 49500.00000 0 976582.224 12878735.043 22026698.356 10 0 60505 50400.00000 0 -883238.502 14748623.864 20817323.941 10 0 60505 51300.00000 0 -2483614.723 16623228.732 19204586.746 10 0 60505 52200.00000 0 -3803929.939 18438513.360 17219422.308 10 0 60505 53100.00000 0 -4836237.261 20129387.791 14900035.577 10 0 60505 54000.00000 0 -5585356.603 21632373.260 12291187.445 10 0 60505 54900.00000 0 -6068433.455 22888227.542 9443348.666 10 0 60505 55800.00000 0 -6313976.176 23844420.408 6411735.620 10 0 60505 56700.00000 0 -6360410.899 24457353.931 3255245.270 10 0 60505 57600.00000 0 -6254214.080 24694232.125 35309.374 10 0 60505 58500.00000 0 -6047701.334 24534498.470 -3185309.520 10 0 60505 59400.00000 0 -5796566.613 23970777.705 -6343755.906 10 0 60505 60300.00000 0 -5557277.402 23009279.343 -9378327.261 10 0 60505 61200.00000 0 -5384438.367 21669643.338 -12229701.639 10 0 60505 62100.00000 0 -5328237.913 19984232.581 -14842120.612 10 0 60505 63000.00000 0 -5432088.763 17996900.952 -17164501.991 10 0 60505 63900.00000 0 -5730565.545 15761288.625 -19151458.329 10 0 60505 64800.00000 0 -6247729.375 13338717.078 -20764199.477 10 0 60505 65700.00000 0 -6995912.448 10795773.403 -21971300.142 10 0 60505 66600.00000 0 -7975015.483 8201686.985 -22749316.685 10 0 60505 67500.00000 0 -9172348.338 5625610.210 -23083240.947 10 0 60505 68400.00000 0 -10563020.474 3133918.386 -22966782.642 10 0 60505 69300.00000 0 -12110864.057 787642.878 -22402475.769 10 0 60505 70200.00000 0 -13769849.631 -1359855.101 -21401608.291 10 0 60505 71100.00000 0 -15485933.294 -3264873.464 -19983978.090 10 0 60505 72000.00000 0 -17199256.145 -4894939.443 -18177481.768 10 0 60505 72900.00000 0 -18846602.185 -6229897.741 -16017546.126 10 0 60505 73800.00000 0 -20364010.368 -7262474.266 -13546415.189 10 0 60505 74700.00000 0 -21689430.591 -7998295.372 -10812308.298 10 0 60505 75600.00000 0 -22765312.104 -8455365.595 -7868467.058 10 0 60505 76500.00000 0 -23541016.403 -8663029.498 -4772110.753 10 0 60505 77400.00000 0 -23974954.497 -8660464.524 -1583321.303 10 0 60505 78300.00000 0 -24036360.577 -8494770.982 1636120.224 10 0 60505 79200.00000 0 -23706629.635 -8218741.421 4823923.137 10 0 60505 80100.00000 0 -22980164.969 -7888404.390 7918480.075 10 0 60505 81000.00000 0 -21864701.948 -7560446.157 10860041.339 10 0 60505 81900.00000 0 -20381095.919 -7289618.355 13591849.259 10 0 60505 82800.00000 0 -18562584.014 -7126239.425 16061212.385 10 0 60505 83700.00000 0 -16453551.816 -7113893.395 18220500.699 10 0 60505 84600.00000 0 -14107855.625 -7287421.041 20028044.719 10 0 60505 85500.00000 0 -11586768.761 -7671286.373 21448923.086 10 0 60506 0.00000 0 -8956635.438 -8278385.939 22455625.131 10 0 60506 900.00000 0 -6286325.561 -9109351.033 23028577.458 10 0 60506 1800.00000 0 -3644596.811 -10152371.754 23156523.913 10 0 60506 2700.00000 0 -1097465.831 -11383552.871 22836753.554 10 0 60506 3600.00000 0 1294301.553 -12767788.125 22075170.241 10 0 60506 4500.00000 0 3477480.373 -14260119.578 20886201.839 10 0 60506 5400.00000 0 5408362.917 -15807528.299 19292548.842 10 0 60506 6300.00000 0 7054339.920 -17351084.722 17324774.933 10 0 60506 7200.00000 0 8395020.467 -18828371.431 15020744.809 10 0 60506 8100.00000 0 9422843.069 -20176079.093 12424917.517 10 0 60506 9000.00000 0 10143150.946 -21332667.904 9587506.524 10 0 60506 9900.00000 0 10573726.796 -22240983.010 6563520.847 10 0 60506 10800.00000 0 10743805.026 -22850713.076 3411704.443 10 0 60506 11700.00000 0 10692601.828 -23120586.710 193393.795 10 0 60506 12600.00000 0 10467424.425 -23020211.548 -3028683.859 10 0 60506 13500.00000 0 10121439.514 -22531475.462 -6191647.370 10 0 60506 14400.00000 0 9711196.241 -21649447.595 -9233707.934 10 0 60506 15300.00000 0 9294010.205 -20382738.192 -12095398.265 10 0 60506 16200.00000 0 8925321.715 -18753299.693 -14720758.380 10 0 60506 17100.00000 0 8656142.838 -16795675.631 -17058452.367 10 0 60506 18000.00000 0 8530704.303 -14555728.178 -19062792.036 10 0 60506 18900.00000 0 8584404.571 -12088897.890 -20694645.571 10 0 60506 19800.00000 0 8842150.084 -9458069.463 -21922212.061 10 0 60506 20700.00000 0 9317158.480 -6731134.405 -22721645.928 10 0 60506 21600.00000 0 10010276.162 -3978354.169 -23077518.875 10 0 60506 22500.00000 0 10909839.077 -1269635.635 -22983110.749 10 0 60506 23400.00000 0 11992081.923 1328165.986 -22440524.557 10 0 60506 24300.00000 0 13222077.248 3753803.565 -21460624.696 10 0 60506 25200.00000 0 14555163.249 5953947.243 -20062801.261 10 0 60506 26100.00000 0 15938798.301 7885150.976 -18274566.776 10 0 60506 27000.00000 0 17314762.410 9515396.232 -16130995.086 10 0 60506 27900.00000 0 18621611.459 10825151.011 -13674015.084 10 0 60506 28800.00000 0 19797279.949 11807903.156 -10951574.729 10 0 60506 29700.00000 0 20781722.274 12470149.303 -8016692.995 10 0 60506 30600.00000 0 21519481.610 12830843.672 -4926419.322 10 0 60506 31500.00000 0 21962079.129 12920333.371 -1740721.575 10 0 60506 32400.00000 0 22070124.429 12778828.024 1478675.536 10 0 60506 33300.00000 0 21815060.131 12454470.458 4669479.150 10 0 60506 34200.00000 0 21180469.251 12001091.139 7770021.494 10 0 60506 35100.00000 0 20162892.258 11475741.528 10720435.563 10 0 60506 36000.00000 0 18772121.078 10936109.895 13463791.899 10 0 60506 36900.00000 0 17030958.708 10437927.364 15947176.135 10 0 60506 37800.00000 0 14974454.797 10032471.742 18122688.502 10 0 60506 38700.00000 0 12648648.611 9764272.222 19948348.015 10 0 60506 39600.00000 0 10108870.484 9669109.577 21388885.868 10 0 60506 40500.00000 0 7417670.398 9772394.248 22416414.504 10 0 60506 41400.00000 0 4642457.150 10087989.433 23010960.817 10 0 60506 42300.00000 0 1852943.112 10617528.322 23160854.012 10 0 60506 43200.00000 0 -881502.519 11350254.760 22862960.846 10 0 60506 44100.00000 0 -3494485.190 12263395.593 22122763.163 10 0 60506 45000.00000 0 -5925094.525 13323051.365 20954275.034 10 0 60506 45900.00000 0 -8120189.637 14485570.900 19379799.267 10 0 60506 46800.00000 0 -10036366.367 15699355.188 17429525.660 10 0 60506 47700.00000 0 -11641524.809 16907017.867 15140976.215 10 0 60506 48600.00000 0 -12915971.215 18047814.075 12558305.354 10 0 60506 49500.00000 0 -13853007.101 19060237.340 9731466.259 10 0 60506 50400.00000 0 -14458979.266 19884676.024 6715257.458 10 0 60506 51300.00000 0 -14752786.923 20466017.117 3568266.729 10 0 60506 52200.00000 0 -14764865.155 20756086.272 351732.149 10 0 60506 53100.00000 0 -14535686.427 20715818.835 -2871657.415 10 0 60506 54000.00000 0 -14113843.021 20317067.322 -6038998.123 10 0 60506 54900.00000 0 -13553791.747 19543965.674 -9088417.620 10 0 60506 55800.00000 0 -12913357.707 18393789.584 -11960305.793 10 0 60506 56700.00000 0 -12251104.497 16877273.572 -14598503.339 10 0 60506 57600.00000 0 -11623684.609 15018369.014 -16951422.518 10 0 60506 58500.00000 0 -11083284.983 12853451.986 -18973075.929 10 0 60506 59400.00000 0 -10675278.384 10430013.497 -20623991.280 10 0 60506 60300.00000 0 -10436182.278 7804887.341 -21871992.864 10 0 60506 61200.00000 0 -10392013.228 5042090.784 -22692833.621 10 0 60506 62100.00000 0 -10557107.290 2210369.800 -23070665.239 10 0 60506 63000.00000 0 -10933456.407 -619447.016 -22998337.469 10 0 60506 63900.00000 0 -11510588.201 -3377173.884 -22477521.731 10 0 60506 64800.00000 0 -12265992.904 -5995957.964 -21518657.916 10 0 60506 65700.00000 0 -13166077.654 -8414821.590 -20140727.016 10 0 60506 66600.00000 0 -14167605.819 -10580951.001 -18370855.837 10 0 60506 67500.00000 0 -15219558.589 -12451637.417 -16243763.324 10 0 60506 68400.00000 0 -16265338.420 -13995791.552 -13801061.072 10 0 60506 69300.00000 0 -17245219.962 -15194971.108 -11090423.320 10 0 60506 70200.00000 0 -18098944.164 -16043881.646 -8164643.985 10 0 60506 71100.00000 0 -18768345.911 -16550333.474 -5080600.198 10 0 60506 72000.00000 0 -19199904.757 -16734659.946 -1898143.301 10 0 60506 72900.00000 0 -19347112.209 -16628624.886 1321060.805 10 0 60506 73800.00000 0 -19172557.277 -16273867.744 4514719.524 10 0 60506 74700.00000 0 -18649644.156 -15719953.848 7621107.083 10 0 60506 75600.00000 0 -17763871.611 -15022112.794 10580241.558 10 0 60506 76500.00000 0 -16513621.829 -14238760.297 13335024.009 10 0 60506 77400.00000 0 -14910426.825 -13428907.027 15832319.365 10 0 60506 78300.00000 0 -12978701.746 -12649561.973 18023960.131 10 0 60506 79200.00000 0 -10754955.961 -11953237.572 19867655.611 10 0 60506 80100.00000 0 -8286513.789 -11385659.313 21327791.053 10 0 60506 81000.00000 0 -5629796.297 -10983773.966 22376103.101 10 0 60506 81900.00000 0 -2848233.036 -10774138.372 22992219.917 10 0 60506 82800.00000 0 -9887.466 -10771755.435 23164056.388 10 0 60506 83700.00000 0 2815108.681 -10979405.917 22888057.038 10 0 60506 84600.00000 0 5557208.931 -11387504.791 22169281.431 10 0 60506 85500.00000 0 8150086.276 -11974489.722 21021329.260 99